Regional Weather Roundup
Issued by NWS

Home | Current Version | Previous Version | Graphics & Text | Print | Product List | Glossary On
Versions: 1 2 3 4 5 6 7 8 9 10 11 12 13 14 15 16 17 18 19 20 21 22 23 24 25 26 27 28 29 30 31 32 33 34 35 36 37 38 39 40 41 42 43 44 45 46 47 48 49 50
000
ASUS43 KDMX 231701
RWRIA

WEATHER ROUNDUP FOR IOWA
NATIONAL WEATHER SERVICE DES MOINES IA
1100 AM CST THU FEB 23 2017

NOTE: "FAIR" INDICATES FEW OR NO CLOUDS BELOW 12,000 FEET WITH NO
SIGNIFICANT WEATHER AND/OR OBSTRUCTIONS TO VISIBILITY.

* - THESE STATIONS ARE NOT NWS STATIONS...THUS NOT UNDER NWS
QUALITY CONTROL.  THEY ALSO DO NOT REPORT WEATHER SUCH
AS PRECIPITATION OR FOG.

IAZ001>003-012>014-020>022-031>034-043>046-231800-
   NORTHWEST IOWA

CITY           SKY/WX    TMP DP  RH WIND       PRES   REMARKS
CARROLL *      CLOUDY    37  36  93 NE20      29.77F WCI  27
CHEROKEE *     CLOUDY    34  31  90 NE15G21   29.81F WCI  24
DENISON *      CLOUDY    37  34  87 NE22      29.74F WCI  27
LE MARS *      CLOUDY    34  30  86 NE16      29.83F WCI  23
ORANGE CITY *  CLOUDY    34  30  86 NE10      29.82F WCI  26
SHELDON *      CLOUDY    32  32 100 NE18      29.82F WCI  20
SIOUX CITY     CLOUDY    37  30  75 NE13      29.80F WCI  29
SPENCER        CLOUDY    34  29  82 NE16      29.83F WCI  24
STORM LAKE *   CLOUDY    34  32  93 NE20      29.80R WCI  22
$$

IAZ055>058-069>071-079>083-090>094-231800-
   SOUTHWEST IOWA

CITY           SKY/WX    TMP DP  RH WIND       PRES   REMARKS
ATLANTIC *     CLOUDY    39  36  87 NE15G24   29.73F WCI  31
CLARINDA *     CLOUDY    41  39  93 NE16G23   29.71F
COUNCIL BLFS * CLOUDY    39  37  93 NE16G23   29.71F WCI  30
CRESTON *      MIX PCPN  39  39 100 E21G29    29.71F WCI  29
HARLAN  *      CLOUDY    37  37 100 NE18      29.77F WCI  27
LAMONI         CLOUDY    41  39  93 E16G22    29.71F
RED OAK *      CLOUDY    39  37  93 NE17      29.71F WCI  30
SHENANDOAH *   CLOUDY    41  37  87 NE16G23   29.69F
$$

IAZ047>049-059>061-072>074-084-231800-
   CENTRAL IOWA

CITY           SKY/WX    TMP DP  RH WIND       PRES   REMARKS
AMES           CLOUDY    40  36  86 NE12      29.80F WCI  33
ANKENY *       CLOUDY    41  36  81 NE15G21   29.80F
BOONE *        CLOUDY    39  37  93 NE18      29.78F WCI  30
CHARITON *     CLOUDY    41  39  93 NE15      29.75F
DES MOINES     CLOUDY    43  36  76 E14       29.79F
GRINNELL*      CLOUDY    41  36  82 NE9       29.83R
KNOXVILLE *    CLOUDY    43  37  81 NE9G15    29.77F
MARSHALLTOWN   CLOUDY    42  36  79 NE15      29.80F
NEWTON *       CLOUDY    41  37  87 E13       29.80F
PELLA *        CLOUDY    44  37  79 E5        29.80F
PERRY *        CLOUDY    40  36  86 NE15G21   29.77F WCI  31
$$

IAZ004>006-015-016-023>025-035-036-231800-
   NORTH CENTRAL IOWA

CITY           SKY/WX    TMP DP  RH WIND       PRES   REMARKS
ALGONA *       CLOUDY    36  34  93 NE20G29   29.81F WCI  25
CLARION *      CLOUDY    37  37 100 E15G23    29.83S WCI  28
ESTHERVILLE    CLOUDY    32  30  92 NE17      29.84F WCI  21
FORT DODGE *   CLOUDY    37  30  75 NE13G21   29.82F WCI  29
MASON CITY     CLOUDY    36  32  85 NE18      29.85F WCI  26
FOREST CITY *  CLOUDY    36  32  87 NE14G20   29.84F WCI  27
WEBSTER CITY * CLOUDY    37  34  87 NE20      29.78F WCI  27
IOWA FALLS *   CLOUDY    40  35  81 NE13      29.83F WCI  33
$$

IAZ007>011-017>019-026>030-037>042-050>054-066-231800-
   NORTHEAST IOWA

CITY           SKY/WX    TMP DP  RH WIND       PRES   REMARKS
CEDAR RAPIDS   CLOUDY    44  38  79 NE10      29.80S
CHARLES CITY * CLOUDY    39  37  93 NE16      29.84R WCI  30
CLINTON *      CLOUDY    46  40  79 NE12      29.82S
DECORAH *      CLOUDY    41  32  70 NE13      29.80F
DUBUQUE        CLOUDY    43  35  73 NE12      29.81F
MONTICELLO *   CLOUDY    45  36  70 NE9G16    29.81R
OELWEIN *      PTSUNNY   41  36  81 NE9G21    29.83R
WATERLOO       CLOUDY    43  34  70 NE12      29.83R
$$

IAZ064-065-067-068-078-231800-
   EAST CENTRAL IOWA

CITY           SKY/WX    TMP DP  RH WIND       PRES   REMARKS
DAVENPORT      CLOUDY    46  39  76 E12       29.80S
IOWA CITY      CLOUDY    46  37  71 VRB5      29.85R
MUSCATINE *    CLOUDY    46  39  76 E3        29.83R
QUAD CITIES    CLOUDY    46  39  76 NE5       29.80S
$$

IAZ062-063-075>077-085>089-095>099-231800-
   SOUTHEAST IOWA

CITY           SKY/WX    TMP DP  RH WIND       PRES   REMARKS
BURLINGTON     CLOUDY    46  41  82 CALM      29.81R
FAIRFIELD *    CLOUDY    45  37  76 NE8       29.80F
KEOKUK *       CLOUDY    45  41  87 NE8G14    29.77F
CENTERVILLE *  LGT RAIN  41  41 100 NE8G20    29.75F
OTTUMWA        LGT RAIN  45  40  82 E12       29.78F
WASHINGTON *   CLOUDY    45  39  81 E6        29.84R
$$

ABBREVIATIONS USED IN REMARKS
   TC - TEMPERATURES IN CELSIUS
  WCI - WIND CHILL INDEX
   HX - HEAT INDEX
  VSB - VISIBILITY
$$





USA.gov is the U.S. government's official web portal to all federal, state and local government web resources and services.